STARLINK-34332, 64213

Orbit data source: Space-Track

STARLINK-34332, 64213 is a payload satellite owned by SpaceX/Seattle (US) in LEO that was launched on Thu, 05 Jun 2025 UTC via an FALCON 9 launch vehicle from the Air Force Western Test Range (AFWTR). Payload-class satellites include a variety of spacecraft equipped with specific instruments for various scientific and technological missions. These include communications satellites like Starlink; space stations such as the ISS; scientific satellites like the Hubble; Earth observation satellites from companies like Planet Labs, Umbra, and HawkEye 360; GPS; miniature CubeSats for education and research; and military/defense satellites.

Loading next visibility...
Identifier
64213, 2025-117L
Orbit
LEO
Last TLE update
8 hours ago
Origin
Manufacturer
SpaceX/Seattle
Mission
Operational spacecraft
Bus & Motor
STARLINK V2MO, Unknown motor
Mass
575 kg wet, ~530 kg dry
Launch date (UTC)
2025-06-05 (2 weeks ago)
Launch vehicle
FALCON 9
Launch site
Air Force Western Test Range (AFWTR)
Object type
Payload
Rocket body
Debris
Shape & HBR
Unknown
Radar Cross Section
Large (>1 m²)

Expand to show TLE details & history

TLE from 8 hours ago
0 STARLINK-34332
1 64213U 25117L   25169.91668981 -.01483182  00000-0 -14141-1 0  9994
2 64213  53.1600 190.4763 0001164 101.8743 168.6762 15.68859917  4110
Epoch: 2025-06-18T22:00Z
TLE epoch observation values (Epoch: 2025-06-18T22:00:01.999Z)
Latitude
-53.31059°
Longitude
-136.0037°
Altitude
381.454 km
Speed
7.68 km/s
True Right ascension
06h 45m 35s
True Declination
-53° 08' 11"
Sunlit
Object was in daylight at epoch
Visualization orbit readout
Latitude
48.98885°
Longitude
10.314°
Altitude
370.224 km
Speed
7.694 km/s
Apparent Right ascension
08h 50m 15s
Apparent Declination
47° 19' 49"
Sunlit
Object is in daylight
Visualization observer readout
Local Sidereal Time
17:10:01
Azimuth
325.651° NNW
Elevation
10.026°
Doppler factor
1
Orbital elements
Apogee altitude
363.206 km
Perigee altitude
361.636 km
Semi-major axis
6,740.558 km
Eccentricity
0.00012
Inclination
53.16°
RAAN
190.4763°
Arg. of periapsis
101.8743°
True anomaly
Unknown
Mean anomaly
168.6762°
Eccentric anomaly
Unknown
Mean motion
3.92193 °/min
Orbital period
91.79 mins
BSTAR
-0.014141
Loading maneuver chart data...
Loading SW <> Apogee altitude chart data...
Loading historical data...
Loading historical data...
Loading historical data...
Loading historical data...
Loading historical data...
Loading historical data...
Loading historical data...

STARLINK-34332 Visibility forecast

Observer location: undefined°, undefined°

Span
Click to sort rows by Start time (UTC) header in descending order
Start Az.
Max El. time (UTC)
Max El. Az.
Max El.
End time (UTC)
End Az.
4 mins2025-06-19 11:08:33.294Z303.21° NW2025-06-19 11:09:33.294Z240.952° WSW44.503°2025-06-19 11:12:33.294Z134.485° SE
4 mins2025-06-20 03:39:33.294Z203.279° SW2025-06-20 03:40:33.294Z167.153° S37.822°2025-06-20 03:43:33.294Z59.13° ENE
|